Retour au catalogue

OPS 9313

IDSCS 3

ActifMilitaireMEO
NORAD 2217·PAYLOAD·🇺🇸 United States

Lancé Jun 16, 1966 depuis Cape Canaveral Space Force Station

Loading…

Prochains Passages (prochaines 24 heures)

TLE

FraisSource: Space-Track

Époque: Sep 13, 2026, 19:53 UTC

1 02217U 66053D   26256.82902875 -.00000111  00000-0  00000-0 0  9998
2 02217   8.7985  43.2836 0036592 212.0268 147.8333  1.07755027140472

Suivez OPS 9313 en temps réel avec AllMySat

Download on the App Store